Location: Home
(42.5358°N, 72.7383°W)
Time: 00:21:20
(UTC-05:00)

NOAA 15 - Visible Passes

Search period start: 27 January 2022 00:00
Search period end: 06 February 2022 00:00
Orbit: 797 x 812 km, 98.7° (Epoch: 26 January)

Date Brightness Start Highest point End Pass type
(mag) Time Alt. Az. Time Alt. Az. Time Alt. Az.
27 Jan 4.8 18:07:20 10° SE 18:12:17 45° ENE 18:17:17 10° N visible
27 Jan 6.8 19:48:05 10° SSW 19:52:14 24° W 19:56:26 10° NW visible
28 Jan 7.6 06:22:43 10° NE 06:25:55 16° E 06:29:05 10° SE visible
28 Jan 5.4 17:42:53 10° ESE 17:47:15 28° ENE 17:51:39 10° N visible
28 Jan 5.9 19:21:57 10° SSW 19:26:50 39° W 19:31:47 10° NNW visible
29 Jan 4.9 18:56:19 10° S 19:01:31 68° WSW 19:06:47 10° NNW visible
30 Jan 4.5 18:31:06 10° SSE 18:36:19 73° ENE 18:41:35 10° N visible
30 Jan 7.4 20:13:54 10° WSW 20:16:37 14° W 20:19:22 10° WNW visible
31 Jan 4.9 18:06:15 10° SE 18:11:11 44° ENE 18:16:10 10° N visible
31 Jan 6.7 19:46:55 10° SSW 19:51:07 24° W 19:55:22 10° NW visible
01 Feb 7.7 06:21:41 10° NE 06:24:48 16° E 06:27:53 10° SE visible
01 Feb 5.5 17:41:49 10° ESE 17:46:10 27° ENE 17:50:32 10° N visible
01 Feb 5.8 19:20:48 10° SSW 19:25:43 40° W 19:30:42 10° NNW visible
02 Feb 4.9 18:55:12 10° S 19:00:25 69° WSW 19:05:42 10° NNW visible
03 Feb 4.5 18:29:59 10° SSE 18:35:12 71° ENE 18:40:29 10° N visible
03 Feb 7.4 20:12:40 10° WSW 20:15:30 15° W 20:18:22 10° WNW visible
04 Feb 4.9 18:05:10 10° SE 18:10:05 43° ENE 18:15:04 10° N visible
04 Feb 6.7 19:45:45 10° SSW 19:50:00 25° W 19:54:19 10° NW visible
05 Feb 7.7 06:20:40 10° NE 06:23:41 15° E 06:26:41 10° SE visible
05 Feb 5.5 17:40:45 10° ESE 17:45:04 26° ENE 17:49:25 10° N visible
05 Feb 5.8 19:19:40 10° S 19:24:37 42° W 19:29:37 10° NNW visible
